Weather History for Gwinn, MI

Change the Weather History Date:

Sunday, January 5, 2014

  Actual Average (KESC) Record (KESC)
Temperature  
Mean Temperature 4 °F -  
Max Temperature 11 °F 23 °F 44 °F (2007)
Min Temperature -4 °F 6 °F -15 °F (1968)
Degree Days  
Heating Degree Days 62    
Moisture  
Dew Point -3 °F    
Average Humidity 74    
Maximum Humidity 85    
Minimum Humidity 56    
Precipitation  
Precipitation 0.00 in - - ()
Sea Level Pressure  
Sea Level Pressure 30.02 in    
Wind  
Wind Speed 6 mph (NW)    
Max Wind Speed 14 mph    
Max Gust Speed 21 mph    
Visibility 9 miles    
Events Snow    
Averages and records for this station are not official NWS values.
T = Trace of Precipitation, MM = Missing Value Source: NWS Daily Summary

Daily Weather History Graph

Daily Weather History Graph

Search for Another Location

Airport:

Trip Planner

Search our weather history database for the weather conditions in past years. The results will help you decide how hot, cold, wet, or windy it might be!

Date:

Astronomy

Jan. 05, 2014 Rise Set
Actual Time 8:32 AM EST 5:17 PM EST
Civil Twilight 7:58 AM EST 5:52 PM EST
Nautical Twilight 7:20 AM EST 6:30 PM EST
Astronomical Twilight 6:43 AM EST 7:06 PM EST
Moon 10:55 AM EST (1/5) 11:05 PM EST (1/5)
Length of Visible Light 9h 54m
Length of Day
8h 45m
Waxing Crescent, 24% of the Moon is Illuminated
Jan 5
Waxing Crescent
Jan 7
First Quarter
Jan 15
Full
Jan 24
Last Quarter
Jan 30
New

Hourly Weather History & Observations

Time (EST) Temp. Windchill Dew Point Humidity Pressure Visibility Wind Dir Wind Speed Gust Speed Precip Events Conditions
12:17 AM 11.1 °F 3.1 °F 5.4 °F 78% 29.97 in 10.0 mi WNW 4.6 mph - N/A   Overcast
12:37 AM 11.1 °F 4.9 °F 5.5 °F 78% 29.98 in 10.0 mi West 3.5 mph - N/A   Overcast
12:56 AM 10.9 °F 1.4 °F 5.2 °F 78% 29.99 in 10.0 mi West 5.8 mph - N/A   Overcast
1:17 AM 10.4 °F 2.2 °F 5.4 °F 80% 29.99 in 10.0 mi WNW 4.6 mph - N/A Snow Light Snow
1:37 AM 10.2 °F 2.0 °F 5.5 °F 81% 30.00 in 7.0 mi WNW 4.6 mph - N/A Snow Light Snow
1:56 AM 9.5 °F 1.2 °F 4.3 °F 79% 30.01 in 10.0 mi NW 4.6 mph - N/A   Overcast
2:17 AM 9.0 °F -2.2 °F 3.0 °F 77% 30.02 in 10.0 mi WNW 6.9 mph - N/A   Mostly Cloudy
2:37 AM 9.7 °F -3.3 °F 2.1 °F 71% 30.03 in 10.0 mi NW 9.2 mph - N/A   Overcast
2:57 AM 9.7 °F -0.1 °F 1.8 °F 70% 30.03 in 10.0 mi NNW 5.8 mph - N/A   Overcast
3:17 AM 9.9 °F 0.2 °F 2.3 °F 71% 30.04 in 7.0 mi NW 5.8 mph - N/A Snow Light Snow
3:36 AM 9.5 °F -0.3 °F 3.2 °F 76% 30.04 in 7.0 mi NW 5.8 mph - N/A   Overcast
3:57 AM 9.3 °F -0.5 °F 3.4 °F 77% 30.04 in 4.0 mi WNW 5.8 mph - N/A Snow Light Snow
4:17 AM 8.6 °F -1.3 °F 0.7 °F 70% 30.04 in 10.0 mi NW 5.8 mph - N/A   Mostly Cloudy
4:37 AM 8.4 °F -0.1 °F 0.3 °F 70% 30.04 in 10.0 mi NW 4.6 mph - N/A   Mostly Cloudy
4:57 AM 7.9 °F -0.7 °F 0.9 °F 73% 30.05 in 7.0 mi WNW 4.6 mph - N/A   Overcast
5:16 AM 7.3 °F 0.5 °F 1.9 °F 79% 30.05 in 5.0 mi WNW 3.5 mph - N/A Snow Light Snow
5:37 AM 7.0 °F 0.1 °F 1.6 °F 79% 30.06 in 5.0 mi WNW 3.5 mph - N/A Snow Light Snow
5:57 AM 6.8 °F -2.0 °F 1.4 °F 79% 30.06 in 3.0 mi WNW 4.6 mph - N/A Snow Light Snow
6:54 AM 3.2 °F -7.8 °F -0.4 °F 85% 30.07 in 10.0 mi WNW 5.8 mph - N/A   Scattered Clouds
7:45 AM 1.4 °F -12.5 °F -4.0 °F 78% 30.08 in 10.0 mi WNW 8.1 mph - N/A   Clear
8:50 AM -0.4 °F -14.7 °F -4.0 °F 85% 30.09 in 10.0 mi WNW 8.1 mph - N/A   Partly Cloudy
9:45 AM -0.4 °F -15.7 °F -5.8 °F 78% 30.10 in 10.0 mi WNW 9.2 mph - N/A   Partly Cloudy
10:58 AM 3.2 °F -13.9 °F -5.8 °F 66% 30.10 in 10.0 mi NW 12.7 mph - N/A   Clear
11:46 AM 3.2 °F -10.3 °F -5.8 °F 66% 30.11 in 10.0 mi NW 8.1 mph - N/A   Clear
12:55 PM 3.2 °F -12.2 °F -5.8 °F 66% 30.08 in 10.0 mi NNW 10.4 mph - N/A   Clear
1:55 PM 5.0 °F -10.8 °F -7.6 °F 56% 30.06 in 10.0 mi NNW 11.5 mph - N/A   Clear
2:45 PM 3.2 °F -13.1 °F -7.6 °F 61% 30.05 in 10.0 mi NW 11.5 mph - N/A   Clear
3:50 PM 3.2 °F -12.2 °F -7.6 °F 61% 30.04 in 10.0 mi NNW 10.4 mph - N/A   Clear
4:50 PM 1.4 °F -8.3 °F -7.6 °F 66% 30.04 in 10.0 mi NW 4.6 mph - N/A   Clear
5:50 PM -0.4 °F -13.4 °F -9.4 °F 66% 30.06 in 10.0 mi NNW 6.9 mph - N/A   Clear
6:50 PM -2.2 °F -16.8 °F -9.4 °F 71% 30.03 in 10.0 mi NW 8.1 mph - N/A   Mostly Cloudy
8:55 PM -2.2 °F -16.8 °F -9.4 °F 71% 29.98 in 10.0 mi WNW 8.1 mph - N/A   Overcast
9:55 PM -4.0 °F -22.1 °F -9.4 °F 78% 29.94 in 10.0 mi WNW 11.5 mph - N/A   Overcast
10:17 PM -3.6 °F -19.7 °F -9.6 °F 76% 29.94 in 10.0 mi WNW 9.2 mph - N/A   Overcast
10:37 PM -4.0 °F -20.2 °F -9.9 °F 76% 29.93 in 10.0 mi WNW 9.2 mph - N/A   Overcast
10:57 PM -4.0 °F -20.2 °F -9.9 °F 76% 29.92 in 10.0 mi NW 9.2 mph - N/A   Overcast
11:16 PM -4.0 °F -19.0 °F -9.8 °F 76% 29.91 in 10.0 mi NW 8.1 mph - N/A   Overcast
11:37 PM -4.0 °F -21.2 °F -9.6 °F 77% 29.90 in 7.0 mi WNW 10.4 mph 17.3 mph N/A   Overcast
11:57 PM -3.5 °F -23.1 °F -9.4 °F 76% 29.89 in 5.0 mi NW 13.8 mph 20.7 mph N/A   Haze